EW1257 Weather Reports


Display with metric or nautical units.
time (UTC)temp
F
wind
direction
speed
MPH
gust
MPH
rain 1hr
in
rain 24hr
in
rain mn
in
humidity
%
barometer
mb
20190117084011 30 112 5.0 7.0 0.00 0.04 0.00 95 1026.4
20190117083011 30 135 4.0 8.0 0.00 0.04 0.00 95 1026.4
20190117081011 30 135 3.0 7.0 0.00 0.04 0.00 95 1026.4
20190117075511 30 135 2.0 7.0 0.00 0.04 0.00 95 1026.4
20190117075011 30 112 4.0 7.0 0.00 0.04 0.00 95 1026.4
20190117074511 30 135 2.0 6.0 0.00 0.04 0.00 95 1026.4
20190117074011 30 135 6.0 7.0 0.00 0.04 0.00 95 1026.4
20190117073011 30 112 4.0 5.0 0.00 0.04 0.00 95 1026.4
20190117072511 30 135 3.0 6.0 0.00 0.04 0.00 95 1026.4
20190117072011 30 135 1.0 6.0 0.00 0.04 0.00 95 1026.4
20190117071511 30 135 5.0 5.0 0.00 0.04 0.00 95 1026.4
20190117071011 30 135 1.0 4.0 0.00 0.04 0.00 95 1026.4
20190117062010 30 90 2.0 6.0 0.00 0.04 0.00 93 1026.4
20190117061010 30 135 5.0 6.0 0.00 0.04 0.00 94 1026.8
20190117055010 30 112 1.0 4.0 0.00 0.04 0.00 94 1026.8
20190117053510 30 90 0.0 6.0 0.00 0.04 0.00 93 1027.1
20190117053010 30 90 2.0 6.0 0.00 0.04 0.00 93 1027.1
20190117052510 30 112 3.0 5.0 0.00 0.04 0.00 93 1027.1
20190117051510 30 112 1.0 6.0 0.00 0.04 0.00 93 1027.4
20190117051010 30 112 4.0 6.0 0.00 0.04 0.00 93 1027.4
20190117050510 30 112 2.0 6.0 0.00 0.04 0.00 93 1027.4
20190117050010 30 112 2.0 5.0 0.00 0.04 0.00 93 1027.4
20190117045013 30 112 1.0 6.0 0.00 0.04 0.04 93 1027.8
20190117044013 30 112 0.0 6.0 0.00 0.04 0.04 94 1027.4
20190117040512 30 90 1.0 3.0 0.00 0.04 0.04 94 1027.8
20190117035512 30 90 1.0 6.0 0.00 0.04 0.04 94 1027.8
20190117032512 30 157 1.0 4.0 0.00 0.04 0.04 95 1028.1
20190117032012 30 157 0.0 4.0 0.00 0.04 0.04 95 1028.1
20190117031012 30 180 2.0 4.0 0.00 0.04 0.04 95 1028.1
20190117030512 30 180 1.0 4.0 0.00 0.04 0.04 95 1028.1
20190117025012 30 180 0.0 3.0 0.00 0.04 0.04 95 1028.1
20190117022512 30 157 1.0 4.0 0.00 0.04 0.04 95 1027.8
20190117022012 30 157 2.0 5.0 0.00 0.04 0.04 95 1028.1
20190117020512 30 157 1.0 6.0 0.00 0.04 0.04 95 1027.8
20190117015511 30 180 2.0 5.0 0.00 0.04 0.04 95 1027.8
20190117015012 30 180 2.0 4.0 0.00 0.04 0.04 95 1027.8
20190117014512 30 180 1.0 4.0 0.00 0.04 0.04 95 1027.8
20190117013011 30 157 1.0 5.0 0.01 0.04 0.04 95 1027.8
20190117012512 30 157 3.0 5.0 0.01 0.04 0.04 95 1027.8
20190117012012 30 202 1.0 5.0 0.01 0.04 0.04 95 1027.8
20190117011512 30 157 2.0 5.0 0.01 0.04 0.04 95 1027.8
20190117010512 30 157 1.0 4.0 0.01 0.04 0.04 95 1027.8
20190117005012 30 157 2.0 5.0 0.01 0.04 0.04 95 1027.8
20190117002512 30 157 0.0 0.0 0.00 0.03 0.03 93 1027.8
20190117001511 30 157 0.0 4.0 0.00 0.03 0.03 93 1027.4
20190117001011 30 157 1.0 4.0 0.00 0.03 0.03 93 1027.8
20190116235511 31 157 2.0 4.0 0.00 0.03 0.03 93 1027.4
20190116235011 31 157 2.0 6.0 0.00 0.03 0.03 93 1027.4
20190116234011 31 180 4.0 6.0 0.00 0.03 0.03 93 1027.4
20190116233012 31 180 3.0 6.0 0.00 0.03 0.03 93 1027.4
20190116232511 31 180 1.0 6.0 0.00 0.03 0.03 93 1027.4
20190116232011 31 157 3.0 6.0 0.00 0.03 0.03 93 1027.4
20190116231511 31 157 3.0 6.0 0.00 0.03 0.03 93 1027.4
20190116230511 31 157 3.0 5.0 0.00 0.03 0.03 93 1027.4
20190116230011 31 180 2.0 5.0 0.00 0.03 0.03 92 1027.1
20190116223512 31 202 2.0 6.0 0.00 0.03 0.03 90 1027.1
20190116223011 31 202 2.0 4.0 0.00 0.03 0.03 89 1027.1
20190116220511 32 180 1.0 6.0 0.00 0.03 0.03 89 1027.1
20190116215011 32 202 1.0 5.0 0.00 0.03 0.03 88 1027.1
20190116213011 32 225 3.0 4.0 0.00 0.03 0.03 88 1026.8
20190116212511 32 225 2.0 5.0 0.00 0.03 0.03 88 1026.8
20190116210511 32 247 2.0 6.0 0.01 0.03 0.03 88 1027.1
20190116205511 32 225 3.0 6.0 0.01 0.03 0.03 87 1026.4
20190116205011 32 225 4.0 6.0 0.01 0.03 0.03 87 1026.4
20190116204511 32 247 2.0 6.0 0.01 0.03 0.03 88 1026.4
20190116203011 32 247 6.0 6.0 0.01 0.03 0.03 89 1026.8
20190116202511 32 247 2.0 7.0 0.01 0.03 0.03 89 1026.8
20190116201512 32 292 6.0 9.0 0.00 0.02 0.02 88 1026.8
20190116201011 32 270 3.0 9.0 0.00 0.02 0.02 89 1026.8
20190116200511 32 292 6.0 10.0 0.00 0.02 0.02 90 1026.8
20190116194010 32 270 3.0 7.0 0.00 0.02 0.02 95 1026.4
20190116191011 32 292 7.0 8.0 0.01 0.02 0.02 95 1026.4
20190116190511 32 292 4.0 7.0 0.01 0.02 0.02 95 1026.4
20190116185510 32 270 5.0 10.0 0.01 0.02 0.02 95 1026.4
20190116175510 32 292 5.0 9.0 0.00 0.01 0.01 95 1026.8
20190116175010 32 315 6.0 9.0 0.00 0.01 0.01 95 1026.8
20190116174010 32 292 6.0 8.0 0.00 0.01 0.01 95 1026.8
20190116173510 32 270 3.0 9.0 0.01 0.01 0.01 95 1026.4
20190116172010 32 270 5.0 9.0 0.01 0.01 0.01 95 1026.8
20190116171510 31 270 2.0 9.0 0.01 0.01 0.01 95 1026.8
20190116170010 32 292 5.0 10.0 0.01 0.01 0.01 95 1027.1
20190116165510 31 292 6.0 9.0 0.01 0.01 0.01 95 1027.1
20190116164010 31 270 7.0 8.0 0.01 0.01 0.01 95 1027.1
20190116162010 31 270 6.0 7.0 0.00 0.00 0.00 95 1027.1
20190116161511 31 292 6.0 8.0 0.00 0.00 0.00 95 1027.1
20190116160010 31 270 4.0 7.0 0.00 0.00 0.00 95 1027.1
20190116155510 31 292 2.0 8.0 0.00 0.00 0.00 95 1027.1
20190116153510 31 315 1.0 6.0 0.00 0.00 0.00 95 1027.1
20190116151510 31 270 2.0 6.0 0.00 0.00 0.00 95 1026.8
20190116150510 30 270 3.0 6.0 0.00 0.00 0.00 95 1026.4
20190116143010 30 247 5.0 7.0 0.00 0.00 0.00 95 1026.1
20190116140010 29 270 3.0 7.0 0.00 0.00 0.00 94 1026.1
20190116135510 29 270 4.0 7.0 0.00 0.00 0.00 94 1025.7
20190116131510 29 247 3.0 7.0 0.00 0.00 0.00 94 1025.7
20190116124509 29 270 3.0 7.0 0.00 0.00 0.00 94 1025.7
20190116121010 29 270 4.0 9.0 0.00 0.00 0.00 94 1025.4
20190116115510 30 292 5.0 10.0 0.00 0.00 0.00 95 1025.1
20190116115009 30 270 4.0 9.0 0.00 0.00 0.00 95 1025.1
20190116111510 30 270 5.0 12.0 0.00 0.00 0.00 95 1024.4
20190116110010 31 292 6.0 10.0 0.00 0.00 0.00 95 1024.0
20190116105509 31 292 7.0 10.0 0.00 0.00 0.00 95 1023.7
20190116104509 31 270 6.0 10.0 0.00 0.00 0.00 95 1023.7
20190116103010 31 270 7.0 11.0 0.00 0.00 0.00 95 1023.7
20190116101509 31 247 4.0 9.0 0.00 0.00 0.00 95 1023.7
20190116100009 31 225 6.0 9.0 0.00 0.00 0.00 95 1023.7
20190116095509 31 247 5.0 11.0 0.00 0.00 0.00 95 1023.4
20190116092509 31 247 5.0 13.0 0.00 0.00 0.00 95 1023.4
20190116091009 31 247 5.0 11.0 0.00 0.00 0.00 95 1023.4
20190116090509 31 225 7.0 11.0 0.00 0.00 0.00 95 1023.0
20190116085509 30 202 7.0 10.0 0.00 0.00 0.00 95 1023.0